Location: Unspecified
(0.0000°N, 0.0000°E)
Time: 18:25:33
(UTC+02:00)

Tiros 1 despin weight - All Passes

Search period start: 22 June 2017 00:00
Search period end: 02 July 2017 00:00
Orbit: 596 x 643 km, 48.2° (Epoch: 21 June)

Date Brightness Start Highest point End Pass type
(mag) Time Alt. Az. Time Alt. Az. Time Alt. Az.
22 Jun - 03:46:54 10° NNW 03:51:19 72° NE 03:55:48 10° SE night (unlit)
22 Jun - 15:55:23 10° SW 16:00:00 67° NW 16:04:34 10° NNE daylight
23 Jun - 02:24:22 10° NNE 02:26:51 15° NE 02:29:21 10° E night (unlit)
23 Jun - 04:04:06 10° WNW 04:08:15 38° SW 04:12:28 10° SSE night (unlit)
23 Jun - 14:31:40 10° S 14:35:31 25° SE 14:39:20 10° ENE daylight
23 Jun - 16:13:11 10° WSW 16:16:57 24° NW 16:20:40 10° N daylight
24 Jun - 02:39:40 10° NNW 02:43:48 39° NE 02:48:00 10° ESE night (unlit)
24 Jun - 04:22:46 10° W 04:25:16 15° SW 04:27:46 10° SSW night (unlit)
24 Jun - 14:47:49 10° SSW 14:52:29 69° SE 14:57:04 10° NE daylight
25 Jun - 02:56:20 10° NW 03:00:43 70° SW 03:05:12 10° SSE night (unlit)
25 Jun - 13:25:13 10° SSE 13:27:56 15° SE 13:30:38 10° E daylight
25 Jun - 15:05:00 10° WSW 15:09:24 41° NW 15:13:45 10° NNE daylight
26 Jun - 01:32:49 10° N 01:36:17 23° NE 01:39:48 10° ESE night (unlit)
26 Jun - 03:14:03 10° WNW 03:17:41 25° SW 03:21:22 10° S night (unlit)
26 Jun - 13:40:33 10° SSW 13:44:56 39° SE 13:49:15 10° ENE daylight
26 Jun - 15:23:31 10° W 15:26:22 16° NW 15:29:12 10° NNW daylight
27 Jun - 01:48:52 10° NNW 01:53:13 64° NE 01:57:38 10° SE night (unlit)
27 Jun - 13:57:11 10° SW 14:01:52 75° NW 14:06:29 10° NE daylight
28 Jun - 00:26:40 10° NNE 00:28:44 13° NE 00:30:50 10° ENE night (unlit)
28 Jun - 02:05:58 10° WNW 02:10:09 42° SW 02:14:24 10° SSE night (unlit)
28 Jun - 12:33:38 10° S 12:37:21 23° SE 12:41:03 10° ENE daylight
28 Jun - 14:14:51 10° WSW 14:18:48 27° NW 14:22:43 10° N daylight
29 Jun - 00:41:42 10° NNW 00:45:43 35° NE 00:49:47 10° ESE night (unlit)
29 Jun - 02:24:25 10° W 02:27:08 16° SW 02:29:53 10° SSW night (unlit)
29 Jun - 12:49:40 10° SSW 12:54:19 62° SE 12:58:55 10° NE daylight
29 Jun - 14:35:14 10° WNW 14:35:49 10° NW 14:36:23 10° NW daylight
30 Jun - 00:58:14 10° NW 01:02:39 78° SW 01:07:05 10° SE night (unlit)
30 Jun - 11:27:21 10° SSE 11:29:46 14° SE 11:32:09 10° E daylight
30 Jun - 13:06:45 10° SW 13:11:14 46° NW 13:15:43 10° NNE daylight
30 Jun - 23:34:55 10° N 23:38:11 20° NE 23:41:29 10° E night (unlit)
01 Jul - 01:15:51 10° WNW 01:19:35 27° SW 01:23:21 10° S night (unlit)
01 Jul - 11:42:28 10° SSW 11:46:45 35° SE 11:51:02 10° ENE daylight
01 Jul - 13:25:02 10° W 13:28:12 18° NW 13:31:21 10° N daylight
01 Jul - 23:50:49 10° NNW 23:55:08 57° NE 23:59:29 10° SE night (unlit)
